Meteo Giornale » Osservazioni meteo Italia » Torino-Caselle

ore: 00:50 - Osservazioni Meteo Torino-Caselle
Lat. 45° 13' N Lon. 7° 39' E Alt. 301 metri s.l.m.

nebbia Europe/Rome

10 °C

Nebbia

Temp. 24 Ore

8 °C

17 °C

Nord

5.5 Km/h

Dew point 10 °C

Umidità 100 %

Visibilità  0.05 Km

Il sole sorge alle ore 07:52

Il sole tramonta alle ore 18:35

Data e Ora Cielo e Fenomeni T °C DP °C Um. % Pres. hPa Vis. km Vento km/h
Oggi h: 00:50 nebbia Nebbia 10 10 100 1021 0.05 N 5.5
Oggi h: 00:20 nebbia Nebbia 10 10 100 1021 0.05 N 5.5
Ieri h: 23:50 nebbia Nebbia 10 10 100 1021 0.05 N 5.5
Ieri h: 23:20 nebbia Nebbia 10 10 100 1021 0.2 E/NE 7.4
Ieri h: 22:50 nebbia Nebbia 10 10 100 1021 0.2 E/NE 7.4
Ieri h: 22:20 nebbia Nebbia 10 10 100 1021 0.9 E/NE 7.4
Ieri h: 21:50 foschia Foschia 11 10 93 1021 1 N 5.5
Ieri h: 21:20 foschia Foschia 11 10 93 1020 2 N 5.5
Ieri h: 20:50 foschia Foschia 12 10 87 1020 2 N 5.5
Ieri h: 20:20 foschia Foschia 12 11 93 1020 3 N 3.7
Ieri h: 19:50 foschia Foschia 12 10 87 1020 2 N 5.5
Ieri h: 19:20 foschia Foschia 13 11 87 1020 3 N 5.5
Ieri h: 18:50 foschia Foschia 14 11 82 1019 3 E/NE 7.4
Ieri h: 18:20 foschia Foschia 15 11 76 1019 3 N 5.5
Ieri h: 17:50 foschia Foschia 16 11 72 1019 3 E 7.4
Ieri h: 17:20 foschia Foschia 17 11 67 1019 3 N 5.5
Ieri h: 16:50 foschia Foschia 17 11 67 1019 3 N 3.7
Ieri h: 16:20 foschia Foschia 17 11 67 1019 3 N 3.7
Ieri h: 15:50 foschia Foschia 17 11 67 1019 3 N 5.5
Ieri h: 15:20 foschia Foschia 16 11 72 1019 2 N 5.5
Ieri h: 14:50 foschia Foschia 15 11 76 1019 2 N 5.5
Ieri h: 14:20 foschia Foschia 13 11 87 1020 1 N 5.5
Ieri h: 13:50 foschia Foschia 13 11 87 1020 1 N 5.5
Ieri h: 13:20 nebbia Nebbia 12 11 93 1020 0.7 N 5.5
Ieri h: 12:50 nebbia Nebbia 11 11 100 1021 0.8 N 3.7
Ieri h: 12:20 nebbia Nebbia 11 11 100 1021 0.8 N 3.7
Ieri h: 11:50 nebbia Nebbia 11 11 100 1021 0.8 N 3.7
Ieri h: 11:20 nebbia Nebbia 10 10 100 1021 0.6 N 3.7
Ieri h: 10:50 nebbia Nebbia 10 9 93 1021 0.3 N 1.8
Ieri h: 10:20 nebbia Nebbia 9 9 100 1021 0.2 N 1.8
Ieri h: 09:50 nebbia Nebbia 9 9 100 1021 0.05 N 1.8
Ieri h: 09:20 nebbia Nebbia 9 9 100 1021 0.05 N 5.5
Ieri h: 08:50 nebbia Nebbia 9 9 100 1020 0.05 N 3.7
Ieri h: 08:20 nebbia Nebbia 9 8 93 1020 0.05 N 1.8
Ieri h: 07:50 nebbia Nebbia 8 8 100 1019 0.05 N 1.8
Ieri h: 07:20 nebbia Nebbia 9 8 93 1019 0.05 N 3.7
Ieri h: 06:50 nebbia Nebbia 9 9 100 1020 0.1 N 3.7
Ieri h: 06:20 nebbia Nebbia 9 9 100 1020 0.1 N 1.8
Ieri h: 05:50 nebbia Nebbia 9 9 100 1019 0.1 N 3.7
Ieri h: 05:20 nebbia Nebbia 10 9 93 1020 0.1 N 3.7
Ieri h: 04:50 nebbia Nebbia 10 9 93 1020 0.1 N 5.5
Ieri h: 04:20 nebbia Nebbia 10 9 93 1020 0.4 N 5.5
Ieri h: 03:50 foschia Foschia 11 9 87 1019 3 N 3.7
Ieri h: 03:20 foschia Foschia 11 9 87 1020 3 N 1.8
Ieri h: 02:50 foschia Foschia 11 9 87 1020 3 N 3.7
Ieri h: 02:20 foschia Foschia 10 7 81 1020 3 N 5.5
Ieri h: 01:50 foschia Foschia 10 8 87 1019 3 N 5.5